Philadelphia Wings Airport, PA

4:02 PM EDT on July 23, 2017 (GMT -0400)
Philadelphia Wings Airport

Weather History for KLOM - October, 2011

Change the Weather History Date:

Wednesday, October 26, 2011

  Actual Average (KPNE) Record (KPNE)
Temperature  
Mean Temperature 54 °F -  
Max Temperature 66 °F 60 °F 72 °F (2010)
Min Temperature 42 °F 41 °F 33 °F (2006)
Degree Days  
Heating Degree Days 11    
Growing Degree Days 4 (Base 50)    
Moisture  
Dew Point 46 °F    
Average Humidity 80    
Maximum Humidity 100    
Minimum Humidity 52    
Precipitation  
Precipitation 0.00 in - - ()
Sea Level Pressure  
Sea Level Pressure 29.89 in    
Wind  
Wind Speed - (North)    
Max Wind Speed -    
Max Gust Speed -    
Visibility 10 miles    
Events      
Averages and records for this station are not official NWS values.
T = Trace of Precipitation, MM = Missing Value Source: NWS Daily Summary

Daily Weather History Graph

Daily Weather History Graph

Search for Another Location

Airport or City:

Trip Planner

Search our weather history database for the weather conditions in past years. The results will help you decide how hot, cold, wet, or windy it might be!

Date:

Astronomy

Oct. 26, 2011 Rise Set
Actual Time 7:23 AM EDT 6:06 PM EDT
Civil Twilight 6:55 AM EDT 6:34 PM EDT
Nautical Twilight 6:23 AM EDT 7:05 PM EDT
Astronomical Twilight 5:52 AM EDT 7:37 PM EDT
Moon 7:07 AM EDT (10/26) 5:46 PM EDT (10/26)
Length of Visible Light 11h 38m
Length of Day
10h 42m
Waning Crescent, 0% of the Moon is Illuminated
Oct 26
Waning Crescent
Oct 26
New
Nov 2
First Quarter
Nov 10
Full
Nov 18
Last Quarter

Hourly Weather History & Observations

Time (EDT) Temp. Dew Point Humidity Pressure Visibility Wind Dir Wind Speed Gust Speed Precip Events Conditions
12:15 AM 44.6 °F 42.8 °F 93% 30.05 in 10.0 mi North - - N/A   Scattered Clouds
12:35 AM 46.4 °F 42.8 °F 87% 30.06 in 10.0 mi North - - N/A   Clear
12:55 AM 44.6 °F 42.8 °F 93% 30.05 in 10.0 mi North - - N/A   Clear
1:15 AM 44.6 °F 42.8 °F 93% 30.05 in 10.0 mi North - - N/A   Clear
1:35 AM 44.6 °F 42.8 °F 93% 30.04 in 10.0 mi North - - N/A   Clear
1:55 AM 44.6 °F 42.8 °F 93% 30.04 in 10.0 mi North - - N/A   Clear
2:15 AM 44.6 °F 42.8 °F 93% 30.03 in 10.0 mi North - - N/A   Clear
2:35 AM 44.6 °F 42.8 °F 93% 30.02 in 10.0 mi North - - N/A   Clear
2:55 AM 44.6 °F 42.8 °F 93% 30.01 in 10.0 mi North - - N/A   Clear
3:15 AM 44.6 °F 42.8 °F 93% 30.00 in 10.0 mi North - - N/A   Clear
3:35 AM 44.6 °F 42.8 °F 93% 30.00 in 10.0 mi North - - N/A   Clear
3:55 AM 42.8 °F 42.8 °F 100% 29.98 in 10.0 mi North - - N/A   Clear
4:15 AM 42.8 °F 42.8 °F 100% 29.98 in 10.0 mi North - - N/A   Clear
4:35 AM 42.8 °F 42.8 °F 100% 29.96 in 10.0 mi North - - N/A   Clear
4:55 AM 42.8 °F 42.8 °F 100% 29.96 in 10.0 mi North - - N/A   Clear
5:15 AM 42.8 °F 41.0 °F 93% 29.95 in 10.0 mi North - - N/A   Clear
5:35 AM 42.8 °F 41.0 °F 93% 29.94 in 10.0 mi North - - N/A   Clear
5:55 AM 42.8 °F 42.8 °F 100% 29.91 in 10.0 mi North - - N/A   Clear
6:15 AM 44.6 °F 42.8 °F 93% 29.92 in 10.0 mi North - - N/A   Clear
7:15 AM 42.8 °F 42.8 °F 100% 29.92 in 10.0 mi North - - N/A   Clear
7:35 AM 44.6 °F 42.8 °F 93% 29.92 in 7.0 mi North - - N/A   Clear
7:55 AM 44.6 °F 44.6 °F 100% 29.93 in 10.0 mi North - - N/A   Clear
8:15 AM 46.4 °F 44.6 °F 93% 29.92 in 10.0 mi North - - N/A   Clear
8:35 AM 50.0 °F 46.4 °F 87% 29.93 in 10.0 mi North - - N/A   Clear
8:55 AM 50.0 °F 46.4 °F 87% 29.93 in 10.0 mi North - - N/A   Clear
9:15 AM 51.8 °F 46.4 °F 82% 29.93 in 10.0 mi North - - N/A   Clear
9:35 AM 51.8 °F 48.2 °F 88% 29.92 in 10.0 mi North - - N/A   Clear
9:55 AM 53.6 °F 48.2 °F 82% 29.92 in 10.0 mi North - - N/A   Clear
10:15 AM 53.6 °F 48.2 °F 82% 29.91 in 10.0 mi North - - N/A   Clear
10:35 AM 55.4 °F 48.2 °F 77% 29.92 in 10.0 mi North - - N/A   Clear
11:15 AM 55.4 °F 46.4 °F 72% 29.89 in 10.0 mi North - - N/A   Clear
11:55 AM 55.4 °F 48.2 °F 77% 29.88 in 10.0 mi North - - N/A   Clear
12:15 PM 57.2 °F 48.2 °F 72% 29.86 in 10.0 mi North - - N/A   Clear
12:35 PM 59.0 °F 48.2 °F 67% 29.85 in 10.0 mi North - - N/A   Clear
12:55 PM 60.8 °F 50.0 °F 68% 29.84 in 10.0 mi North - - N/A   Clear
1:15 PM 62.6 °F 48.2 °F 59% 29.82 in 10.0 mi North - - N/A   Clear
1:35 PM 64.4 °F 46.4 °F 52% 29.81 in 10.0 mi North - - N/A   Clear
1:55 PM 64.4 °F 48.2 °F 56% 29.81 in 10.0 mi North - - N/A   Clear
2:15 PM 66.2 °F 48.2 °F 52% 29.81 in 10.0 mi North - - N/A   Clear
2:35 PM 66.2 °F 50.0 °F 56% 29.80 in 10.0 mi North - - N/A   Scattered Clouds
2:55 PM 66.2 °F 50.0 °F 56% 29.78 in 10.0 mi North - - N/A   Scattered Clouds
3:15 PM 64.4 °F 50.0 °F 59% 29.78 in 10.0 mi North - - N/A   Clear
3:35 PM 64.4 °F 50.0 °F 59% 29.79 in 10.0 mi North - - N/A   Clear
3:55 PM 66.2 °F 50.0 °F 56% 29.78 in 10.0 mi North - - N/A   Clear
4:15 PM 64.4 °F 50.0 °F 59% 29.78 in 10.0 mi North - - N/A   Clear
4:35 PM 64.4 °F 50.0 °F 59% 29.77 in 10.0 mi North - - N/A   Clear
4:55 PM 64.4 °F 50.0 °F 59% 29.77 in 10.0 mi North - - N/A   Clear
5:15 PM 64.4 °F 50.0 °F 59% 29.77 in 10.0 mi North - - N/A   Clear
5:35 PM 64.4 °F 50.0 °F 59% 29.77 in 10.0 mi North - - N/A   Clear
5:55 PM 60.8 °F 50.0 °F 68% 29.78 in 10.0 mi North - - N/A   Clear
6:15 PM 59.0 °F 51.8 °F 77% 29.78 in 10.0 mi North - - N/A   Clear
6:35 PM 57.2 °F 51.8 °F 82% 29.79 in 10.0 mi North - - N/A   Scattered Clouds
6:55 PM 59.0 °F 51.8 °F 77% 29.79 in 10.0 mi North - - N/A   Mostly Cloudy
7:15 PM 60.8 °F 51.8 °F 72% 29.79 in 10.0 mi North - - N/A   Scattered Clouds
7:55 PM 55.4 °F 51.8 °F 88% 29.78 in 10.0 mi North - - N/A   Scattered Clouds
8:15 PM 55.4 °F 51.8 °F 88% 29.77 in 10.0 mi North - - N/A   Mostly Cloudy
8:35 PM 57.2 °F 51.8 °F 82% 29.77 in 10.0 mi North - - N/A   Mostly Cloudy
8:55 PM 55.4 °F 51.8 °F 88% 29.78 in 10.0 mi North - - N/A   Mostly Cloudy
9:15 PM 55.4 °F 51.8 °F 88% 29.78 in 10.0 mi North - - N/A   Mostly Cloudy
9:35 PM 55.4 °F 51.8 °F 88% 29.78 in 10.0 mi North - - N/A   Overcast
9:55 PM 55.4 °F 51.8 °F 88% 29.77 in 10.0 mi North - - N/A   Overcast
10:15 PM 55.4 °F 53.6 °F 94% 29.77 in 10.0 mi North - - N/A   Mostly Cloudy
10:35 PM 55.4 °F 53.6 °F 94% 29.76 in 10.0 mi North - - N/A   Mostly Cloudy
10:55 PM 59.0 °F 53.6 °F 82% 29.76 in 10.0 mi North - - N/A   Overcast
11:15 PM 60.8 °F 51.8 °F 72% 29.76 in 10.0 mi North - - N/A   Overcast
11:35 PM 60.8 °F 51.8 °F 72% 29.75 in 10.0 mi North - - N/A   Overcast